Fort Leonard Wood, MO

10:30 PM CST on January 23, 2018 (GMT -0600)
Waynesville Regional At Forney Field

Weather History for KTBN - May, 2014

Change the Weather History Date:

Thursday, May 8, 2014

  Actual Average Record
Temperature  
Mean Temperature 71 °F -  
Max Temperature 80 °F 73 °F 93 °F (2000)
Min Temperature 64 °F 55 °F 48 °F (2001)
Cooling Degree Days 6    
Growing Degree Days 21 (Base 50)    
Moisture  
Dew Point 65 °F    
Average Humidity 83    
Maximum Humidity 100    
Minimum Humidity 61    
Precipitation  
Precipitation 0.63 in - - ()
Sea Level Pressure  
Sea Level Pressure 29.87 in    
Wind  
Wind Speed 10 mph (South)    
Max Wind Speed 18 mph    
Max Gust Speed 28 mph    
Visibility 8 miles    
Events Rain , Thunderstorm    
Averages and records for this station are not official NWS values.
T = Trace of Precipitation, MM = Missing Value Source: NWS Daily Summary

Daily Weather History Graph

Daily Weather History Graph

Search for Another Location

Airport or City:

Trip Planner

Search our weather history database for the weather conditions in past years. The results will help you decide how hot, cold, wet, or windy it might be!

Date:

Astronomy

May. 08, 2014 Rise Set
Actual Time 6:05 AM CDT 8:05 PM CDT
Civil Twilight 5:36 AM CDT 8:34 PM CDT
Nautical Twilight 5:01 AM CDT 9:09 PM CDT
Astronomical Twilight 4:23 AM CDT 9:47 PM CDT
Moon 2:12 PM CDT (5/8) 2:29 AM CDT (5/8)
Length of Visible Light 14h 57m
Length of Day
14h 00m
Waxing Gibbous, 65% of the Moon is Illuminated
May 8
Waxing Gibbous
May 14
Full
May 21
Last Quarter
May 28
New
Jun 5
First Quarter

Hourly Weather History & Observations

Time (CDT) Temp. Dew Point Humidity Pressure Visibility Wind Dir Wind Speed Gust Speed Precip Events Conditions
12:58 AM 70.7 °F 63.0 °F 76% 29.84 in 10.0 mi South 9.2 mph - N/A   Clear
1:58 AM 70.3 °F 63.1 °F 78% 29.85 in 8.0 mi South 8.1 mph - N/A   Partly Cloudy
2:58 AM 70.2 °F 63.1 °F 78% 29.85 in 10.0 mi South 11.5 mph 18.4 mph N/A   Mostly Cloudy
3:49 AM 69.8 °F 64.4 °F 83% 29.86 in 10.0 mi South 11.5 mph 18.4 mph N/A   Light Drizzle
3:58 AM 70.0 °F 64.0 °F 81% 29.84 in 10.0 mi South 12.7 mph 19.6 mph 0.00 in   Light Drizzle
3:59 AM 69.8 °F 64.4 °F 83% 29.86 in 10.0 mi South 11.5 mph 19.6 mph N/A   Scattered Clouds
4:58 AM 70.7 °F 63.5 °F 78% 29.86 in 10.0 mi South 9.2 mph - 0.00 in   Scattered Clouds
5:58 AM 70.0 °F 63.7 °F 80% 29.86 in 10.0 mi South 9.2 mph - N/A   Overcast
6:58 AM 69.3 °F 63.5 °F 82% 29.83 in 7.0 mi South 8.1 mph - N/A   Partly Cloudy
7:58 AM 70.7 °F 63.3 °F 77% 29.86 in 10.0 mi South 10.4 mph 17.3 mph N/A   Scattered Clouds
8:58 AM 73.0 °F 62.8 °F 70% 29.87 in 10.0 mi South 16.1 mph 21.9 mph N/A   Partly Cloudy
9:58 AM 75.2 °F 62.8 °F 65% 29.88 in 10.0 mi South 12.7 mph 24.2 mph N/A   Mostly Cloudy
10:24 AM 75.2 °F 62.6 °F 65% 29.91 in 10.0 mi South 10.4 mph 17.3 mph N/A   Light Drizzle
10:33 AM 75.2 °F 64.4 °F 69% 29.92 in 10.0 mi SSW 8.1 mph 17.3 mph N/A   Mostly Cloudy
10:58 AM 78.3 °F 64.0 °F 61% 29.90 in 10.0 mi South 16.1 mph 27.6 mph 0.00 in   Mostly Cloudy
11:58 AM 78.1 °F 64.9 °F 64% 29.88 in 10.0 mi SSW 11.5 mph 24.2 mph N/A   Overcast
12:58 PM 78.8 °F 65.3 °F 63% 29.85 in 10.0 mi South 11.5 mph 23.0 mph N/A   Mostly Cloudy
1:58 PM 77.5 °F 65.1 °F 65% 29.86 in 10.0 mi South 10.4 mph 24.2 mph N/A   Mostly Cloudy
2:58 PM 75.4 °F 66.0 °F 73% 29.87 in 10.0 mi Variable 4.6 mph - N/A Thunderstorm Overcast
3:12 PM 75.2 °F 66.2 °F 73% 29.89 in 10.0 mi Variable 6.9 mph - N/A Rain , Thunderstorm Light Rain
3:23 PM 75.2 °F 66.2 °F 73% 29.89 in 10.0 mi South 4.6 mph - N/A Thunderstorm Overcast
3:38 PM 73.4 °F 66.2 °F 78% 29.89 in 10.0 mi SSE 8.1 mph - N/A Thunderstorm Overcast
3:48 PM 73.4 °F 66.2 °F 78% 29.89 in 10.0 mi SSE 8.1 mph - N/A   Mostly Cloudy
3:58 PM 73.2 °F 66.9 °F 81% 29.88 in 10.0 mi SE 8.1 mph - 0.00 in   Mostly Cloudy
4:13 PM 73.4 °F 66.2 °F 78% 29.89 in 10.0 mi South 9.2 mph - N/A   Mostly Cloudy
4:14 PM 73.4 °F 66.2 °F 78% 29.89 in 10.0 mi South 10.4 mph - N/A   Light Drizzle
4:49 PM 69.8 °F 69.8 °F 100% 29.89 in 2.0 mi South 8.1 mph - N/A Rain Heavy Rain
4:54 PM 69.8 °F 69.8 °F 100% 29.90 in 2.5 mi South 8.1 mph - N/A Rain Rain
4:58 PM 69.8 °F 69.8 °F 100% 29.88 in 3.0 mi SSW 9.2 mph - 0.12 in Rain Rain
5:03 PM 69.8 °F 69.8 °F 100% 29.91 in 3.0 mi South 10.4 mph 18.4 mph N/A Rain Rain
5:58 PM 65.3 °F 65.3 °F 100% 29.89 in 3.0 mi Variable 6.9 mph - 0.19 in Rain , Thunderstorm Rain
6:03 PM 64.4 °F 64.4 °F 100% 29.90 in 1.5 mi South 6.9 mph - N/A Rain , Thunderstorm Heavy Rain
6:13 PM 64.4 °F 64.4 °F 100% 29.88 in 2.5 mi South 9.2 mph - N/A Rain Heavy Rain
6:18 PM 64.4 °F 64.4 °F 100% 29.87 in 3.0 mi Variable 6.9 mph - N/A Rain , Thunderstorm Rain
6:58 PM 64.6 °F 64.6 °F 100% 29.84 in 6.0 mi SSE 18.4 mph - 0.30 in Rain Light Rain
7:33 PM 66.2 °F 66.2 °F 100% 29.86 in 10.0 mi South 10.4 mph 19.6 mph N/A   Partly Cloudy
7:58 PM 65.8 °F 65.8 °F 100% 29.87 in 10.0 mi South 10.4 mph 16.1 mph 0.02 in   Partly Cloudy
8:58 PM 65.3 °F 65.1 °F 99% 29.83 in 10.0 mi South 8.1 mph 19.6 mph N/A   Scattered Clouds
9:58 PM 65.3 °F 63.5 °F 94% 29.82 in 10.0 mi Variable 4.6 mph - N/A   Clear
10:58 PM - - N/A% - - SSE 11.5 mph 19.6 mph N/A   Unknown
11:18 PM 66.2 °F 62.6 °F 88% 29.83 in 10.0 mi South 8.1 mph - N/A   Mostly Cloudy
11:58 PM 66.6 °F 64.0 °F 92% 29.80 in 10.0 mi South 10.4 mph 23.0 mph N/A   Mostly Cloudy